Kosmos-2403

operational
NORAD ID: 28113 Int'l Des: 2003-056 Owner: KVR/IACG Country: RU Constellation: GLONASS
MEOCIRCULAR

Über Kosmos-2403

Beschreibung wird geladen...

Live-Position

3D-Globus wird geladen...

Nächste Überflüge

Höhenverlauf

Altitude vs Time

uPlot chart will show altitude changes over time

Zweizeiliger Elementsatz

1 28113U 03056B 25278.42846131 .00000035 00000-0 00000+0 0 9999
2 28113 64.1067 71.1595 0051031 74.1923 265.3147 2.13104798169813
Epoch: 5. Okt. 2025 • Age: 17 hours

Aktueller Status

Höhe 19117.2 km
Geschwindigkeit 3.96 km/s
Subsatellitenpunkt 18.85°N, 179.45°E
Startdatum 10. Dez. 2003
Alter 21.8 years
Typ other

Technische Details

Klassifizierung Payload
Masse 1415.00 kg
Trockenmasse 1200.00 kg
Gesamtmasse 1415.00 kg
Länge 4.00 m
Durchmesser 1.50 m
Spannweite 7.80 m
Form Cyl + Ant + 2 Pan
Hersteller POL
Bus-Typ Uragan
Phasenstatus In Orbit
Besitzer/Staat KVR/IACG/RU

Große Konstellationen

Loading constellations...